Вернуться в каталог

DEB SIMORGH

АктивенLEO
NORAD 65789·DEBRIS·🇮🇷 Iran
Это название спутника еще не подтверждено официальными источниками.

Запущен Jan 28, 2024 с Semnan Space Center

Loading…

Ближайшие Пролёты (ближайшие 24 часа)

TLE

УстаревшееSource: Space-Track

Эпоха: Sep 2, 2026, 20:18 UTC

1 65789U 24018E   26245.84613841  .00002997  00000-0  28493-3 0  9990
2 65789  58.9612 285.4578 0366566 147.0158 215.4339 14.56764315120276

Отслеживайте DEB SIMORGH в реальном времени с AllMySat

Download on the App Store